IGO3313 VOGA-VAPO

Flight info

Callsign IGO3313
Flight time N/A
Altitude 24000
Route EPKOS1B EPKOS DCT AVKOR DCT
Aircraft A20N/M-SDE2E3FGHIRWXY/LB1

Departure

Time N/A
Airport Manohar International Airport (VOGA)

Arrival

Time 2026-04-26 12:30
Airport Pune International Airport (VAPO)
Time Latitude Longitude Altitude Speed Heading
2026-04-26 12:22 18.37999 74.06700 7093 ft 283 kts 14°
2026-04-26 12:23 18.39905 74.07261 6689 ft 283 kts 14°
2026-04-26 12:23 18.41760 74.07809 6375 ft 271 kts 13°
2026-04-26 12:23 18.43534 74.08332 6055 ft 261 kts 13°
2026-04-26 12:23 18.45253 74.08839 5590 ft 258 kts 12°
2026-04-26 12:24 18.46973 74.09341 5109 ft 256 kts 12°
2026-04-26 12:24 18.48686 74.09840 4662 ft 255 kts 12°
2026-04-26 12:24 18.50399 74.10338 4177 ft 255 kts 12°
2026-04-26 12:25 18.53706 74.11309 3810 ft 233 kts 10°
2026-04-26 12:25 18.55232 74.11327 3800 ft 210 kts 339°
2026-04-26 12:25 18.56376 74.10541 3799 ft 189 kts 308°
2026-04-26 12:25 18.56967 74.09362 3812 ft 184 kts 288°
2026-04-26 12:26 18.57222 74.08014 3802 ft 183 kts 278°
2026-04-26 12:26 18.57313 74.06740 3801 ft 166 kts 275°
2026-04-26 12:26 18.57383 74.05559 3809 ft 163 kts 275°
2026-04-26 12:26 18.57457 74.04365 3804 ft 162 kts 275°
2026-04-26 12:27 18.57530 74.03184 3736 ft 161 kts 276°
2026-04-26 12:27 18.57605 74.02012 3526 ft 161 kts 275°
2026-04-26 12:27 18.57673 74.00850 3324 ft 153 kts 275°
2026-04-26 12:27 18.57739 73.99792 3152 ft 136 kts 276°
2026-04-26 12:28 18.57798 73.98858 2994 ft 126 kts 277°
2026-04-26 12:28 18.57857 73.97903 2836 ft 128 kts 275°
2026-04-26 12:28 18.57916 73.96960 2678 ft 132 kts 275°
2026-04-26 12:28 18.57976 73.95994 2518 ft 135 kts 276°
2026-04-26 12:29 18.58040 73.94985 2343 ft 134 kts 274°
2026-04-26 12:29 18.58100 73.94046 2169 ft 130 kts 274°
2026-04-26 12:29 18.58216 73.92149 1925 ft 117 kts 271°
2026-04-26 12:30 18.58244 73.91658 1924 ft 85 kts 273°
2026-04-26 12:30 18.58282 73.91062 1924 ft 39 kts 274°
2026-04-26 12:30 18.58254 73.90953 1925 ft 11 kts 194°
2026-04-26 12:31 18.58134 73.90931 1925 ft 9 kts 189°
2026-04-26 12:31 18.58062 73.90900 1924 ft 6 kts 233°
2026-04-26 12:31 18.58054 73.90890 1924 ft 2 kts 223°
2026-04-26 12:31 18.58036 73.90884 1925 ft 2 kts 185°
2026-04-26 12:32 18.58029 73.90883 1925 ft 2 kts 188°
2026-04-26 12:32 18.58008 73.90880 1923 ft 3 kts 187°
2026-04-26 12:32 18.58004 73.90880 1923 ft 0 kts 186°